User: anonymous   Login
Location: Young's Pond
(41.2695°N, 72.7766°W)
Time: 15:59:26
(UTC-04:00)
Language:

CZ-4B R/B - Orbit

View from above orbital plane
View from above orbital plane
View from above satellite
View from above satellite

Ground track
Ground track

The orbit data is extracted from the following two-line orbital elements,

1 29093U 06015B   17262.87250813 +.00002889 +00000-0 +68990-4 0  9990
2 29093 097.5035 016.1249 0062323 338.5799 021.2839 15.40412248632004
Epoch (UTC): 19 September 2017 20:56:24
Eccentricity: 0.0062323
inclination: 97.5035°
perigee height: 402 km
apogee height: 487 km
right ascension of ascending node: 16.1249°
argument of perigee: 338.5799°
revolutions per day: 15.40412248
mean anomaly at epoch: 21.2839°
orbit number at epoch: 63200

The dashed part of the orbit path shows where the satellite is in the earth's shadow,  

DLR